This is the latest recevied weather packets stored in our database for station/object WB9TLH-12. If no packets are shown the sender has not sent any weather packets the latest 10 day(s).
| Time | Temp. | Humidity | Pressure | Rain* | Wind** | Luminosity | Snow |
|---|---|---|---|---|---|---|---|
| 1778442134 | 21.11° C | 35% | 1014.8 hPa | 0 mm | - | - | - |
| 1778441834 | 21.11° C | 34% | 1014.8 hPa | 0 mm | - | - | - |
| 1778441534 | 21.11° C | 33% | 1014.9 hPa | 0 mm | - | - | - |
| 1778441233 | 21.11° C | 34% | 1014.9 hPa | 0 mm | - | - | - |
| 1778440933 | 21.11° C | 36% | 1014.9 hPa | 0 mm | - | - | - |
| 1778440633 | 21.11° C | 35% | 1014.9 hPa | 0 mm | - | - | - |
| 1778440332 | 20.56° C | 36% | 1015 hPa | 0 mm | - | - | - |
| 1778440032 | 20.56° C | 34% | 1015.1 hPa | 0 mm | - | - | - |
| 1778439732 | 21.11° C | 34% | 1015.1 hPa | 0 mm | - | - | - |
| 1778439432 | 21.11° C | 34% | 1015 hPa | 0 mm | - | - | - |
| 1778439131 | 21.11° C | 34% | 1014.9 hPa | 0 mm | - | - | - |
| 1778438831 | 21.11° C | 34% | 1015.1 hPa | 0 mm | - | - | - |
| 1778438531 | 21.11° C | 33% | 1015.2 hPa | 0 mm | - | - | - |
| 1778438230 | 21.11° C | 33% | 1015.2 hPa | 0 mm | - | - | - |
| 1778437930 | 21.11° C | 34% | 1015.2 hPa | 0 mm | - | - | - |
| 1778437630 | 21.11° C | 33% | 1015.2 hPa | 0 mm | - | - | - |
| 1778437330 | 21.11° C | 32% | 1015.2 hPa | 0 mm | - | - | - |
| 1778437029 | 21.11° C | 30% | 1015.2 hPa | 0 mm | - | - | - |
| 1778436729 | 21.11° C | 35% | 1015.2 hPa | 0 mm | - | - | - |
| 1778436429 | 21.11° C | 36% | 1015.2 hPa | 0 mm | - | - | - |
| 1778436128 | 21.11° C | 36% | 1015.3 hPa | 0 mm | - | - | - |
| 1778435828 | 21.11° C | 37% | 1015.3 hPa | 0 mm | - | - | - |
| 1778435528 | 21.11° C | 37% | 1015.2 hPa | 0 mm | - | - | - |
| 1778435228 | 20.56° C | 37% | 1015.2 hPa | 0 mm | - | - | - |
| 1778434927 | 20.56° C | 36% | 1015.3 hPa | 0 mm | - | - | - |
* Rain latest hour (hover to see other rain measurements)
** Current wind speed in m/s (hover to see current wind gust speed)